Weather History for New York, NY

Change the Weather History Date:

Tuesday, May 28, 2013

  Actual Average Record
Temperature  
Mean Temperature 64 °F 66 °F  
Max Temperature 71 °F 75 °F 92 °F (1977)
Min Temperature 57 °F 58 °F 44 °F (1961)
Degree Days  
Heating Degree Days 1 2  
Month to date heating degree days 126 129  
Since 1 July heating degree days 4435 4643  
Cooling Degree Days 0 4  
Month to date cooling degree days 43 48  
Year to date cooling degree days 43 56  
Growing Degree Days 14 (Base 50)    
Moisture  
Dew Point 50 °F    
Average Humidity 61    
Maximum Humidity 90    
Minimum Humidity 31    
Precipitation  
Precipitation 0.41 in 0.13 in 1.41 in (1984)
Month to date precipitation 4.99 3.37  
Year to date precipitation 14.41 17.27  
Snow  
Snow 0.00 in 0.00 in - ()
Month to date snowfall T 0.0  
Since 1 July snowfall 22.2 26.9  
Snow Depth 0.00 in    
Sea Level Pressure  
Sea Level Pressure 30.18 in    
Wind  
Wind Speed 6 mph (ESE)    
Max Wind Speed 15 mph    
Max Gust Speed 18 mph    
Visibility 6 miles    
Events Rain    
T = Trace of Precipitation, MM = Missing Value Source: NWS Daily Summary

Daily Weather History Graph

Daily Weather History Graph

Search for Another Location

Airport:

Trip Planner

Search our weather history database for the weather conditions in past years. The results will help you decide how hot, cold, wet, or windy it might be!

Date:

Astronomy

May. 28, 2013 Rise Set
Actual Time 5:28 AM EDT 8:17 PM EDT
Civil Twilight 4:55 AM EDT 8:50 PM EDT
Nautical Twilight 4:15 AM EDT 9:31 PM EDT
Astronomical Twilight 3:28 AM EDT 10:18 PM EDT
Moon 11:38 PM EDT (5/28) 9:13 AM EDT (5/28)
Length of Visible Light 15h 54m
Length of Day
14h 49m
Waning Gibbous, 83% of the Moon is Illuminated
May 28
Waning Gibbous
May 31
Last Quarter
Jun 8
New
Jun 16
First Quarter
Jun 23
Full

Hourly Weather History & Observations

Time (EDT) Temp. Dew Point Humidity Pressure Visibility Wind Dir Wind Speed Gust Speed Precip Events Conditions
12:51 AM 66.0 °F 39.0 °F 37% 30.18 in 10.0 mi SW 6.9 mph - N/A   Mostly Cloudy
1:51 AM 64.9 °F 39.0 °F 39% 30.19 in 10.0 mi SW 4.6 mph - N/A   Mostly Cloudy
2:51 AM 64.0 °F 41.0 °F 43% 30.19 in 10.0 mi WSW 3.5 mph - N/A   Overcast
3:51 AM 64.0 °F 39.0 °F 40% 30.18 in 10.0 mi NW 3.5 mph - N/A   Overcast
4:51 AM 62.1 °F 42.1 °F 48% 30.18 in 10.0 mi Calm Calm - N/A   Overcast
5:51 AM 57.9 °F 50.0 °F 75% 30.19 in 10.0 mi NE 4.6 mph - N/A   Mostly Cloudy
6:51 AM 59.0 °F 50.0 °F 72% 30.20 in 10.0 mi ENE 5.8 mph - N/A   Overcast
7:51 AM 61.0 °F 48.9 °F 64% 30.20 in 10.0 mi ENE 4.6 mph - N/A   Mostly Cloudy
8:51 AM 63.0 °F 48.0 °F 58% 30.21 in 10.0 mi ENE 5.8 mph - N/A   Mostly Cloudy
9:51 AM 69.1 °F 46.0 °F 44% 30.21 in 10.0 mi Calm Calm - N/A   Overcast
10:51 AM 71.1 °F 39.9 °F 32% 30.21 in 10.0 mi SSW 6.9 mph - N/A   Overcast
11:51 AM 66.9 °F 46.9 °F 49% 30.22 in 10.0 mi SSW 12.7 mph - 0.00 in Rain Light Rain
12:51 PM 62.1 °F 52.0 °F 70% 30.22 in 9.0 mi South 8.1 mph - 0.01 in Rain Light Rain
1:51 PM 60.1 °F 50.0 °F 69% 30.20 in 9.0 mi SSE 6.9 mph - 0.03 in Rain Light Rain
2:51 PM 60.1 °F 51.1 °F 72% 30.19 in 7.0 mi ESE 8.1 mph - 0.02 in Rain Light Rain
3:13 PM 57.2 °F 51.8 °F 82% 30.20 in 2.5 mi ENE 4.6 mph - 0.05 in Rain Heavy Rain
3:47 PM 57.2 °F 53.6 °F 88% 30.18 in 3.0 mi ESE 9.2 mph - 0.14 in Rain Rain
3:51 PM 57.9 °F 53.1 °F 84% 30.18 in 3.0 mi ESE 8.1 mph - 0.15 in Rain Rain
4:15 PM 57.2 °F 53.6 °F 88% 30.20 in 2.0 mi NE 5.8 mph - 0.05 in Rain Rain
4:46 PM 57.2 °F 53.6 °F 88% 30.19 in 2.0 mi NE 9.2 mph - 0.14 in Rain Rain
4:51 PM 57.0 °F 54.0 °F 89% 30.18 in 2.0 mi ENE 10.4 mph - 0.14 in Rain Light Rain
4:58 PM 57.2 °F 53.6 °F 88% 30.18 in 2.0 mi ENE 9.2 mph - 0.01 in Rain Light Rain
5:20 PM 57.2 °F 53.6 °F 88% 30.18 in 2.5 mi ENE 10.4 mph - 0.02 in Rain Light Rain
5:37 PM 57.2 °F 53.6 °F 88% 30.17 in 2.5 mi ENE 9.2 mph - 0.02 in Rain Light Rain
5:47 PM 57.2 °F 53.6 °F 88% 30.17 in 3.0 mi East 9.2 mph - 0.02 in   Overcast
5:51 PM 57.0 °F 54.0 °F 89% 30.17 in 3.0 mi East 8.1 mph - 0.02 in   Overcast
6:51 PM 60.1 °F 55.9 °F 86% 30.15 in 3.0 mi ESE 6.9 mph - 0.02 in Rain Light Rain
7:51 PM 61.0 °F 57.0 °F 87% 30.14 in 3.0 mi SE 5.8 mph - 0.02 in Rain Light Rain
8:51 PM 60.1 °F 55.9 °F 86% 30.14 in 3.0 mi ESE 8.1 mph - 0.00 in   Overcast
8:57 PM 60.8 °F 55.4 °F 82% 30.13 in 3.0 mi SE 6.9 mph - N/A   Overcast
9:47 PM 59.0 °F 57.2 °F 94% 30.15 in 2.0 mi SE 5.8 mph - N/A   Overcast
9:51 PM 59.0 °F 55.9 °F 90% 30.14 in 2.0 mi SSE 3.5 mph - N/A   Overcast
10:51 PM 59.0 °F 55.9 °F 90% 30.14 in 2.0 mi ESE 4.6 mph - N/A   Overcast
11:51 PM 59.0 °F 55.9 °F 90% 30.14 in 2.0 mi Calm Calm - N/A   Overcast